Home > Weather > Lustenau > Past weeks

Flag for Austria Past Weather in Lustenau, Vorarlberg, Austria — Yesterday and Last 2 Weeks

Now
64 °F

Broken clouds.


Feels Like: 64 °F
Forecast: 60 / 68 °F
Wind: 1 mph from North

Location: Saint Gallen-Altenrhein

Current Time: Jun 25, 2016 at 9:44:40 PM

Latest Report: Jun 25, 2016 at 8:50 PM


Visibility: N/A

Pressure: 30.04 "Hg

Humidity: 88%

Dew Point: 61 °F

Location of LustenauLocation

Past Weather in Lustenau — Graph

°F

Lustenau Temperature Yesterday

Maximum temperature yesterday: 88 °F (at 3:50 PM)
Minimum temperature yesterday: 64 °F (at 2:50 AM)
Average temperature yesterday: 75 °F

High & Low Weather Summary for the Past Weeks

 TemperatureHumidityPressure
High88 °F (Jun 23, 4:50 PM)100% (Jun 14, 1:20 AM)30.27 "Hg (Jun 14, 1:20 AM)
Low48 °F (Jun 17, 5:20 AM)40% (Jun 23, 4:50 PM)29.56 "Hg (Jun 16, 6:20 AM)
Average63 °F80%29.96 "Hg
* Reported Jun 10 8:20 PM — Jun 25 8:20 PM, Lustenau, Weather by CustomWeather, © 2016

Note: Actual official high and low records may vary slightly from our data, if they occured in-between our weather recording intervals... More about our weather records

Advertising

Lustenau Weather History for the Previous 24 Hours

Scroll right to see more
 ConditionsComfort  
Time TempWeatherWind HumidityBarometerVisibility
8:20 PM
Sat, Jun 25
64 °FMore clouds than sun.2 mph94%30.07 "HgN/A
7:50 PM64 °FBroken clouds.2 mph94%30.04 "HgN/A
7:20 PM64 °FSprinkles. Broken clouds.2 mph94%30.04 "HgN/A
6:50 PM66 °FRain showers. Broken clouds.2 mph78%30.04 "Hg4 mi
6:20 PM66 °FSprinkles. Broken clouds.5 mph83%30.04 "HgN/A
5:50 PM66 °FBroken clouds.16 mph83%29.98 "HgN/A
5:20 PM66 °FBroken clouds.17 mph83%30.01 "HgN/A
4:50 PM66 °FSprinkles. Broken clouds.3 mph88%29.98 "HgN/A
4:20 PM64 °FBroken clouds.6 mph88%29.98 "HgN/A
3:50 PM70 °FBroken clouds.10 mph83%29.98 "HgN/A
3:20 PM72 °FBroken clouds.6 mph78%29.95 "HgN/A
2:50 PM72 °FBroken clouds.9 mph78%29.95 "HgN/A
2:20 PM72 °FBroken clouds.8 mph78%29.95 "HgN/A
1:50 PM72 °FPartly sunny.10 mph73%29.95 "HgN/A
1:20 PM73 °FPassing clouds.10 mph74%29.95 "HgN/A
12:50 PM75 °FPassing clouds.8 mph69%29.95 "HgN/A
12:20 PM75 °FSunny.6 mph74%29.95 "Hg10 mi
11:50 AM73 °FBroken clouds.7 mph69%29.95 "HgN/A
11:20 AM73 °FPassing clouds.3 mph69%29.98 "HgN/A
10:50 AM73 °FBroken clouds.2 mph69%29.98 "HgN/A
10:20 AM72 °FPassing clouds.3 mph73%29.98 "HgN/A
9:50 AM72 °FClear.6 mph73%29.98 "HgN/A
9:20 AM73 °FPartly sunny.3 mph74%29.98 "HgN/A
8:50 AM72 °FSunny.3 mph69%29.98 "Hg10 mi
8:20 AM70 °FSunny.9 mph78%29.98 "Hg10 mi
7:50 AM68 °FSunny.9 mph83%29.98 "Hg10 mi
7:20 AM68 °FSunny.9 mph88%30.01 "Hg10 mi
6:50 AM66 °FSunny.6 mph88%30.01 "Hg10 mi
6:20 AM64 °FClear.3 mph88%30.01 "Hg10 mi
5:50 AM64 °FClear.2 mph88%30.01 "HgN/A
5:20 AM64 °FPassing clouds.5 mph88%29.98 "HgN/A
4:50 AM66 °FClear.5 mph83%29.98 "Hg10 mi
4:20 AM66 °FMild.5 mph88%29.98 "HgN/A
3:50 AM66 °FClear.1 mph83%29.98 "Hg10 mi
3:20 AM64 °FClear.3 mph88%29.98 "Hg10 mi
2:50 AM66 °FClear.1 mph88%29.98 "Hg10 mi
2:20 AM66 °FClear.3 mph83%30.01 "Hg10 mi
1:50 AM68 °FMild.3 mph83%30.01 "HgN/A
1:20 AM70 °FClear.3 mph78%30.04 "Hg10 mi
12:50 AM70 °FPassing clouds.7 mph73%30.04 "HgN/A
12:20 AM70 °FPassing clouds.6 mph83%30.04 "HgN/A
11:50 PM
Fri, Jun 24
72 °FPassing clouds.2 mph73%30.04 "HgN/A
11:20 PM70 °FPassing clouds.3 mph83%30.04 "HgN/A
10:50 PM73 °FPassing clouds.10 mph74%30.04 "HgN/A
10:20 PM75 °FBroken clouds.8 mph61%29.98 "HgN/A
9:50 PM70 °FBroken clouds.9 mph83%29.98 "HgN/A
9:20 PM70 °FSprinkles. Partly sunny.10 mph83%30.01 "HgN/A
Weather by CustomWeather, © 2016

See weather overviewHow to use our weather pages